Lid_Strength_Index
11 14 15 13 13 12 13 14 14 12 10 11 12 12 12 10 9 10 10 10 10 9 9 8 8 9 9 9 9 8 8 8 7 7 7 6 6 5 5 4 4 4 5 5
13 15 12 11 11 12 13 14 14 12 11 12 13 13 11 10 10 10 11 11 10 10 10 10 10 10 10 10 10 9 9 8 8 8 7 6 6 6 5 5 5 5 5 6
14 12 10 12 13 14 14 15 14 14 12 12 14 15 13 10 10 10 10 10 11 11 11 11 11 11 11 11 10 10 10 10 9 9 8 8 8 8 8 8 7 6 6 6
12 11 12 13 13 13 15 12 13 14 16 18 14 19 14 12 12 12 11 12 12 12 11 11 12 12 12 11 11 11 10 10 10 10 10 11 10 10 9 9 8 7 6 6
13 13 14 14 13 12 14 13 14 15 16 17 16 18 15 12 14 14 13 12 12 12 12 12 12 12 12 12 12 12 12 11 11 11 11 11 11 11 10 10 10 9 9 8
12 12 13 13 12 13 12 14 14 15 16 20 16 16 16 15 14 13 12 12 11 11 11 11 11 12 12 12 12 12 12 13 12 11 11 12 13 12 12 11 11 11 10 10
12 13 12 12 14 13 14 16 19 19 20 20 14 16 14 11 11 12 12 11 11 11 11 12 12 12 13 13 12 12 12 13 13 13 12 12 12 13 13 12 12 12 12 11
15 17 13 12 13 13 14 14 17 23 21 18 15 18 14 11 11 11 11 11 11 12 12 13 12 12 12 12 12 12 12 12 13 13 13 13 12 13 12 12 12 11 11 11
15 15 11 11 11 11 13 15 12 16 20 21 17 14 12 10 11 11 12 12 13 14 13 13 13 13 13 13 13 12 12 12 12 12 12 12 12 12 12 12 12 12 11 11
12 15 11 12 12 12 12 12 16 15 21 24 19 18 16 12 12 12 13 13 13 13 14 14 14 13 13 13 12 12 12 12 12 12 12 11 11 12 12 12 12 12 11 11
11 13 14 11 13 12 12 13 12 12 14 19 20 18 11 12 12 13 12 11 12 13 13 14 13 13 13 13 13 12 12 12 12 12 12 12 12 12 12 13 12 12 12 11
9 12 16 14 10 8 9 11 12 16 18 16 16 16 8 10 11 11 12 11 12 12 12 13 14 13 13 14 13 13 12 12 12 12 13 13 12 12 14 14 13 12 12 11
10 13 18 18 13 10 13 12 11 12 13 17 19 16 8 9 11 11 12 13 13 14 14 13 14 14 13 13 13 12 13 13 12 13 14 14 13 13 14 14 13 13 13 13
8 12 15 17 15 12 15 13 12 12 16 15 15 14 10 10 10 12 13 13 13 14 13 13 13 13 12 12 12 12 13 13 13 13 13 13 14 12 13 14 14 14 13 13
9 15 13 12 12 12 13 14 14 14 14 16 15 14 12 10 10 12 12 13 13 13 12 13 12 12 13 12 12 12 12 11 11 11 11 11 11 11 11 12 13 12 12 12
12 18 15 20 13 13 15 14 14 13 13 13 13 14 10 13 13 14 14 13 13 13 12 12 11 11 11 11 11 11 11 11 11 12 12 10 10 11 11 11 12 12 12 13
14 17 20 23 15 17 22 17 15 14 13 14 16 15 14 14 14 15 15 13 13 12 12 11 11 10 10 10 9 10 10 10 10 10 9 10 10 10 10 10 11 12 12 13
16 19 18 24 23 29 17 14 15 16 15 15 14 15 14 14 14 13 12 11 11 10 10 10 9 9 8 9 9 9 9 10 10 10 9 9 10 10 10 10 10 11 11 13
13 15 22 26 27 20 17 16 16 17 18 15 15 14 13 13 13 13 10 10 10 10 9 9 9 9 8 9 10 10 10 11 11 11 11 10 11 11 11 11 11 11 12 12
15 14 18 25 27 30 20 16 14 15 23 16 16 16 14 12 16 13 9 9 9 9 9 9 10 10 11 11 11 12 13 13 14 14 13 13 14 15 16 14 13 12 12 13
23 23 20 19 21 21 15 14 13 22 19 12 12 13 13 13 12 10 9 10 9 10 10 10 12 12 12 12 13 15 15 15 15 15 16 16 17 18 17 17 17 16 16 15
21 24 25 24 25 23 12 14 16 12 10 10 11 10 11 10 10 10 10 11 11 12 12 12 13 13 13 13 15 16 17 16 17 18 19 20 21 21 20 21 21 20 19 19
21 17 20 18 19 12 11 11 9 9 10 10 10 9 10 10 11 11 12 12 12 13 13 13 15 15 15 15 16 18 17 18 19 21 22 23 23 23 23 24 24 23 23 22
15 14 17 17 13 11 9 9 8 8 9 8 9 10 11 12 12 12 12 13 13 14 15 15 16 17 17 17 17 18 19 19 22 24 24 24 24 24 24 23 23 23 23 23
14 13 15 14 10 10 9 8 8 8 7 9 10 11 11 12 13 13 14 14 15 15 16 16 17 18 18 18 19 20 21 23 24 25 24 25 24 25 24 23 23 23 22 22
11 12 13 13 9 10 9 8 8 9 9 10 11 12 12 13 14 15 15 15 16 17 17 18 18 19 20 20 21 21 23 24 25 26 25 25 25 24 24 24 23 19 18 17